Helicity
34 10 13 24 19 37 97 51 33 67 25 27 -3 6 23 26 6 32 -3 -10 78 33 1 -1 11 13 19 32 52 63 57 57 49 47 37 27 27 21 22 33 41 35 29 23 2 49 3 -15 5
47 -11 7 18 27 105 77 12 -4 -30 17 66 14 24 10 27 -14 43 54 27 72 47 24 9 24 18 26 30 43 44 50 50 38 31 25 29 31 32 25 37 46 40 38 31 57 107 51 -19 -11
34 -1 -18 18 27 94 4 15 -14 -25 -30 6 6 26 1 -1 19 77 10 54 70 42 29 17 32 24 33 38 42 42 42 40 32 32 34 37 39 38 40 38 36 41 42 39 100 119 99 53 17
-10 -11 39 78 98 48 -14 8 12 14 -25 -35 0 21 37 13 25 -17 61 55 78 34 27 30 36 35 35 45 45 41 46 49 46 43 45 44 50 43 50 44 31 36 40 37 52 61 53 42 46
2 25 -27 -4 -1 -14 -41 -3 -48 -58 6 -53 18 19 16 -7 -9 84 62 51 75 36 22 27 31 37 37 45 41 47 43 52 52 51 50 46 51 45 59 46 41 34 27 26 35 48 39 37 28
27 18 -11 -27 -35 -28 9 56 33 4 -34 -43 30 49 9 6 44 59 55 59 33 60 31 18 31 33 40 41 38 43 44 41 50 38 43 42 33 25 42 41 29 34 26 18 19 34 36 26 27
43 13 -20 -19 -62 -19 -9 -27 37 -34 2 -10 38 16 4 31 31 39 50 63 34 30 54 15 29 28 39 39 39 41 45 32 35 43 24 26 24 21 29 23 20 22 12 14 8 19 28 19 20
-1 16 -16 -36 -41 -35 23 26 -10 47 29 2 33 28 42 35 68 50 47 58 46 23 43 31 25 21 29 28 40 32 31 40 30 46 178 96 56 40 26 -3 18 7 -5 -3 -8 -4 11 19 24
-18 7 -33 -38 -17 -58 43 34 17 47 30 3 41 21 81 196 127 101 80 25 30 5 25 28 26 44 33 17 18 27 28 36 33 72 148 119 64 -23 -28 5 29 7 -18 -18 -14 -5 6 15 30
6 0 -28 10 38 -48 9 -39 61 -41 76 133 117 95 233 222 144 119 95 49 12 5 11 27 24 46 50 27 11 22 9 29 34 53 112 85 37 19 -2 -7 2 -11 -48 -5 -35 -10 4 15 30
-68 -53 -53 -78 35 18 27 -15 32 20 50 170 208 234 224 217 100 58 33 34 26 -18 18 35 32 35 37 35 23 16 28 42 47 42 70 73 63 33 6 -5 -20 -18 -33 -44 -42 -32 -23 0 29
-48 -97 -38 -58 -1 52 70 43 -4 177 -22 76 286 343 309 217 121 61 46 27 29 -12 8 44 51 45 26 5 33 31 53 47 58 40 61 74 58 40 14 4 -17 -34 -19 -19 -18 -19 -16 -11 10
-72 -38 -63 -15 50 84 98 82 38 87 -15 185 232 257 270 177 100 72 85 44 82 56 18 34 54 56 32 16 38 53 41 47 47 55 52 57 57 44 15 0 -11 -21 0 -5 2 -12 -20 -13 19
-4 -2 -40 17 65 72 84 92 79 67 192 236 247 201 197 180 174 167 194 109 42 69 66 47 44 67 69 15 0 36 25 22 47 38 49 54 51 50 32 1 -2 -12 0 4 11 8 -10 -7 12
36 -10 -31 -4 86 44 126 91 61 116 201 226 223 188 176 146 173 229 220 212 95 119 112 63 62 62 55 32 -17 6 2 13 37 35 47 62 50 35 36 12 10 -11 -5 13 16 19 -15 -8 -7
20 16 -24 5 68 43 129 49 129 170 259 185 197 183 167 171 182 154 153 156 150 190 197 127 33 12 58 56 -1 -24 -21 33 26 32 50 61 78 59 20 18 18 6 7 2 20 33 -2 -6 9
83 47 15 -6 14 76 95 42 126 178 167 160 186 201 171 217 199 136 159 109 195 228 245 284 87 -73 -3 26 3 -11 -30 -4 42 1 14 32 81 63 10 23 12 10 -2 13 6 -19 -17 -6 -1
47 41 73 52 13 44 110 42 141 164 127 118 211 215 203 245 231 144 150 144 174 182 260 244 52 -76 -57 13 24 6 39 24 37 7 17 45 68 40 24 19 4 35 4 16 11 12 -11 0 -3
0 32 77 109 24 31 89 84 121 113 87 115 144 166 165 174 187 150 99 97 106 128 207 162 -66 -49 20 50 46 18 -34 19 -10 17 43 42 53 52 63 27 29 30 -21 -30 4 11 21 -9 -7
3 47 37 67 -26 43 63 112 91 72 79 113 138 116 137 134 108 120 145 55 22 30 67 30 -62 4 18 1 45 37 30 12 7 -5 16 35 36 50 54 58 50 14 17 -11 -33 -5 17 10 -10
10 40 76 -16 11 91 89 50 58 62 70 74 77 56 73 96 103 73 67 30 -26 18 12 -42 -52 -26 -34 -56 18 53 36 24 20 39 41 45 33 45 47 46 10 27 9 -3 -32 -25 -23 -13 4
49 18 -26 23 12 31 93 33 36 86 102 172 160 97 68 58 54 14 44 6 -32 -14 -41 -46 -50 -58 -44 -44 -42 -26 -13 -8 12 25 59 34 43 29 24 -11 -2 1 20 13 -53 -42 -28 -21 -9
-70 32 64 5 25 73 53 77 12 69 51 135 135 93 17 -15 20 10 26 5 -36 -63 -27 -25 -30 -30 -51 -40 -26 -20 0 -3 -24 13 32 41 35 31 17 9 -14 -5 -15 -14 -48 -42 -42 -44 -28
-2 35 37 38 64 89 63 102 22 58 -3 47 135 101 25 -6 -22 -35 -16 -10 -35 -64 -54 -35 -25 -9 -30 -42 -21 -4 -1 4 0 4 12 34 14 9 3 2 -3 -4 -14 -24 -36 -40 -41 -36 -22
44 85 94 126 126 62 96 103 42 15 42 -21 138 110 43 30 -8 4 6 -14 -17 -22 -13 -25 -16 -8 -14 -1 -4 10 13 21 41 38 21 21 25 26 23 12 11 8 -2 -23 -29 -25 -32 -42 -39
25 33 76 83 47 57 56 69 38 33 18 21 95 105 91 28 -2 -1 -4 -6 1 -11 -11 -4 3 15 14 20 15 8 16 21 27 7 1 33 23 35 16 12 17 20 0 -15 -21 -21 -30 -37 -41
17 29 21 89 98 96 64 69 45 77 87 45 37 130 53 34 -14 -15 -35 -42 -22 -16 -12 -1 -7 -9 8 18 11 13 14 17 36 8 25 17 -1 -1 6 15 10 0 -1 -6 -17 -23 -26 -32 -36
52 32 75 81 91 71 61 49 42 60 138 163 113 101 -6 -5 6 -54 -47 -53 -48 -38 -22 -9 7 15 5 15 6 -1 -11 -7 6 -1 -4 -27 -22 -25 -30 -21 -9 -11 -9 -11 -13 -25 -31 -33 -39
63 56 70 64 90 82 85 19 48 82 162 220 207 114 -22 -3 -17 -28 -52 -61 -31 -22 -3 1 3 3 2 7 -1 -1 -4 -6 -15 -47 -64 -66 -21 -44 -3 -45 -37 -30 -21 -16 -12 -16 -25 -25 -31
66 35 108 88 38 88 91 23 -21 -7 75 178 163 50 -30 -43 -33 -42 -71 -75 -66 -47 -19 -15 -32 -16 -16 -9 3 6 17 47 60 43 26 41 40 31 26 39 25 -3 -15 -39 -31 -21 -28 -18 -21
Wind_Speed
27 30 29 28 27 22 22 26 44 25 21 26 37 34 33 25 36 37 51 57 61 58 58 54 47 43 41 38 40 42 41 41 42 43 45 47 45 45 45 43 42 45 45 43 46 43 45 45 41
24 31 34 28 25 24 21 23 19 25 18 27 29 31 11 32 32 42 55 59 60 58 56 54 49 45 44 41 40 42 43 43 42 40 42 42 42 43 42 42 42 44 43 43 44 43 43 38 41
28 37 29 17 21 19 17 22 24 7 24 26 30 31 28 31 35 51 51 61 58 55 53 55 50 46 44 38 37 42 42 41 41 40 39 39 37 40 40 41 41 42 42 43 42 44 42 43 41
36 30 20 17 24 11 31 25 31 34 30 23 28 34 31 32 51 51 55 57 55 54 51 54 50 47 44 42 42 41 41 39 36 35 35 37 36 39 39 39 40 40 40 40 39 41 41 39 40
23 15 40 28 30 45 46 33 34 30 8 27 34 34 31 44 43 48 51 53 53 52 50 51 52 50 46 44 42 41 40 38 34 31 31 30 31 36 33 36 37 37 37 36 36 37 36 36 35
24 22 35 40 43 44 38 36 35 21 26 19 34 34 32 35 41 44 44 47 50 51 48 50 50 50 45 44 41 39 39 38 37 35 30 26 26 29 30 32 32 33 34 33 34 33 32 31 30
26 26 34 36 40 40 39 18 38 36 37 36 37 37 28 28 37 37 36 37 40 43 46 48 48 47 45 41 38 38 36 36 34 32 28 24 20 22 24 29 28 30 31 30 29 29 29 27 28
31 25 26 31 26 38 35 37 35 33 34 35 31 33 32 31 35 33 31 32 36 35 38 40 40 41 40 38 36 36 37 36 34 32 25 21 18 22 38 25 26 27 29 28 26 26 26 26 25
27 25 28 27 27 32 33 33 31 31 34 29 28 30 32 40 38 35 34 31 31 27 31 34 37 35 39 38 35 38 38 36 35 33 30 24 18 35 33 22 22 24 25 23 22 23 22 25 25
26 27 29 27 28 27 28 28 32 27 22 30 31 29 35 39 38 38 38 38 37 35 33 36 37 35 35 35 36 36 35 30 32 31 32 31 35 33 27 23 20 20 24 27 21 24 22 23 27
26 24 25 24 26 24 26 24 29 31 31 26 28 29 35 37 34 36 38 39 39 35 28 26 26 30 33 34 34 34 31 29 28 30 28 27 29 26 20 18 19 17 18 22 19 25 24 24 26
25 23 23 30 21 24 26 24 26 27 31 13 27 31 33 34 38 40 38 33 24 25 27 28 22 27 32 33 31 28 27 25 27 29 28 26 23 20 20 14 15 15 27 31 31 28 28 25 24
21 38 28 21 20 22 24 22 26 25 37 33 32 32 33 33 34 29 29 27 37 29 31 31 21 27 26 31 22 21 28 25 28 27 27 25 22 19 21 20 16 14 32 30 36 31 26 23 22
32 41 33 14 19 19 20 23 25 33 31 32 29 29 29 30 30 26 20 31 33 25 27 23 28 20 11 26 30 24 32 29 26 29 26 24 20 16 17 18 18 12 40 37 36 33 27 22 21
37 32 27 20 15 17 18 22 28 28 26 28 26 22 25 25 23 27 27 29 23 19 26 21 24 17 16 21 47 35 38 33 27 29 23 22 19 15 17 19 19 35 45 43 40 36 22 24 22
31 27 29 26 15 17 14 24 22 19 22 24 25 22 19 20 22 17 17 29 23 13 22 16 11 22 42 39 21 46 41 33 31 20 12 19 12 12 19 18 19 29 43 42 40 39 32 25 25
31 28 37 41 28 18 13 31 20 16 17 20 20 19 19 16 17 5 11 20 11 10 17 11 20 35 40 70 61 50 32 33 4 26 19 8 11 9 14 17 16 17 37 44 31 21 23 29 32
28 34 39 39 31 17 14 33 26 18 16 16 16 17 17 15 14 5 13 1 8 10 15 18 16 24 24 64 61 59 48 28 16 23 19 5 11 7 12 12 17 15 49 44 30 31 29 20 26
29 33 39 39 28 25 27 30 22 18 16 18 14 20 20 16 11 8 7 5 7 4 12 20 44 60 69 51 41 56 43 6 21 19 11 5 8 9 10 7 10 12 44 43 26 35 38 21 25
30 35 39 39 39 27 26 33 26 12 13 12 18 19 17 15 13 12 12 14 20 21 23 26 53 61 66 61 47 21 15 4 18 18 20 9 15 18 15 12 9 8 49 51 39 39 37 34 26
29 32 36 42 36 30 23 32 30 31 18 25 20 18 14 12 14 19 22 27 31 24 32 45 57 53 53 46 7 25 26 31 19 33 31 34 22 18 10 6 7 22 52 53 46 40 37 17 12
29 25 39 51 34 34 30 43 33 37 14 8 7 11 12 13 16 23 24 30 40 44 47 54 56 57 52 46 32 28 21 19 43 43 31 14 12 16 28 34 53 55 48 50 26 42 40 37 35
15 42 46 44 32 25 32 39 48 43 27 5 23 9 25 20 21 26 28 30 39 46 47 52 54 55 54 42 30 44 44 30 28 37 30 19 21 23 41 38 52 55 55 52 33 42 40 32 37
34 38 36 33 30 34 34 34 49 39 37 49 16 17 31 21 23 29 30 25 37 43 47 50 53 53 51 45 46 48 42 35 31 36 32 22 30 35 42 46 49 52 51 51 46 43 38 41 41
27 33 37 37 40 42 33 37 20 47 31 49 12 13 27 22 22 27 36 31 35 42 47 46 49 52 52 53 48 46 40 36 35 37 37 33 33 33 40 45 48 49 49 47 47 41 39 41 42
32 25 28 35 36 32 29 34 43 44 27 39 21 10 11 25 20 30 37 29 35 42 46 46 50 54 55 52 49 46 43 37 38 39 39 36 35 34 37 42 43 46 48 47 43 41 40 37 37
23 28 26 28 34 38 38 47 58 22 16 41 28 12 25 23 26 35 38 37 36 36 36 39 45 47 51 50 48 46 41 33 43 42 41 37 34 35 36 39 40 41 44 44 43 44 44 39 35
28 21 31 32 37 41 40 47 36 32 7 6 17 14 24 29 27 37 40 38 35 33 28 24 35 36 36 48 46 43 39 26 23 39 34 31 29 32 34 37 39 39 39 38 37 40 39 39 39
26 30 31 30 31 31 38 37 18 26 15 9 3 10 26 23 30 40 43 39 39 29 30 30 32 27 24 32 46 43 39 34 32 33 31 31 33 31 36 35 38 39 39 37 35 38 39 39 41
36 28 26 33 35 36 41 28 48 44 20 11 10 19 34 40 59 50 43 39 42 40 32 27 38 32 13 13 30 25 24 23 26 29 28 32 32 33 35 35 38 40 43 43 40 40 39 36 35
Wind_Direction
257 283 272 290 310 330 312 342 155 187 253 231 124 89 95 152 111 98 122 125 119 117 118 113 105 98 94 88 87 89 88 87 88 89 91 94 92 92 91 85 77 82 84 78 99 77 92 110 80
210 49 347 333 307 10 280 327 326 4 238 202 189 35 41 38 140 96 113 124 120 118 116 115 109 104 100 95 90 89 88 88 87 87 89 88 85 87 87 84 81 86 85 92 90 62 78 134 90
127 2 122 257 287 334 355 276 258 105 218 257 53 332 280 314 106 111 116 121 117 118 115 117 111 106 102 94 90 93 92 89 90 90 85 84 80 83 79 81 84 90 92 100 90 82 95 116 104
16 315 282 340 7 309 52 333 68 158 313 245 7 6 346 133 108 124 114 119 117 119 117 120 114 110 106 101 98 94 93 91 85 82 82 84 81 88 83 83 88 90 94 104 90 86 96 101 104
308 295 36 19 20 105 90 144 52 1 113 309 58 32 27 109 90 106 114 119 119 120 118 120 120 116 111 106 102 97 96 93 86 80 78 77 75 88 75 80 84 85 92 94 97 99 102 103 96
324 332 35 34 67 93 117 140 133 203 9 286 29 41 48 92 97 110 112 116 120 122 120 124 123 122 116 112 108 103 103 103 99 98 87 75 70 76 71 78 81 83 94 98 110 107 113 103 93
341 359 36 52 75 102 95 91 121 44 52 39 61 44 14 62 99 106 108 110 115 120 123 126 127 127 124 116 111 112 108 111 106 97 86 74 47 60 57 83 84 90 104 100 119 118 120 105 105
2 0 14 40 44 83 75 89 88 86 65 40 67 66 86 100 103 105 107 111 119 120 123 126 126 127 124 121 118 119 123 118 117 106 66 35 9 345 214 101 89 99 112 104 123 132 119 119 108
359 4 34 50 57 61 77 87 84 142 51 359 25 62 88 105 104 109 118 118 120 123 125 127 131 128 133 133 130 135 136 129 128 114 93 70 64 164 159 98 103 104 113 132 143 148 129 122 114
7 27 63 68 83 34 72 51 76 348 71 128 18 35 89 106 114 118 130 135 136 137 136 137 138 135 134 136 136 137 137 120 125 121 116 107 144 148 137 126 115 104 143 231 153 175 144 121 122
8 354 355 350 69 45 77 54 53 19 45 116 78 82 107 112 119 126 130 138 141 139 135 137 135 135 137 137 136 138 129 125 121 131 121 107 125 119 79 95 125 48 50 158 130 178 131 113 110
339 2 19 344 49 54 76 58 14 88 343 85 95 104 110 121 129 136 134 134 132 138 141 144 143 141 144 141 137 132 130 126 128 135 133 124 112 122 137 67 61 66 345 205 203 174 152 123 112
354 309 346 47 68 67 66 66 23 38 322 47 79 101 116 125 132 125 126 130 142 151 152 149 150 149 148 146 133 128 141 137 142 139 141 133 129 138 153 145 65 31 323 343 279 188 149 124 119
322 304 297 48 65 57 45 23 24 1 40 54 76 102 118 126 131 128 133 144 147 145 156 155 154 251 167 152 154 145 156 149 142 153 149 149 135 119 119 125 22 66 272 299 259 206 163 126 116
306 321 331 4 60 32 27 5 352 18 48 61 73 85 114 125 130 148 148 150 147 145 158 159 161 166 181 161 177 165 171 168 154 163 155 152 147 124 115 93 83 193 217 253 248 226 122 58 103
323 334 318 347 41 15 60 351 1 47 53 74 82 86 93 121 144 148 156 165 164 147 160 176 190 165 249 257 163 182 178 174 175 152 133 160 119 110 140 118 101 158 250 213 241 278 358 51 126
329 315 314 305 329 357 358 330 4 24 33 42 89 92 100 105 133 53 156 173 176 167 167 217 158 163 172 214 200 189 170 180 149 178 172 137 32 52 126 126 110 28 282 224 312 355 47 4 305
323 319 314 313 333 358 349 319 350 14 42 59 75 106 126 138 149 50 346 112 180 168 156 146 174 161 152 218 225 228 270 308 335 179 179 35 357 76 111 104 116 60 226 243 306 322 345 177 51
335 330 315 312 348 342 330 328 348 15 49 18 111 154 166 166 135 125 127 33 135 119 150 152 156 181 208 241 261 242 191 11 175 176 164 137 10 6 356 56 84 45 182 181 316 301 272 195 102
328 318 314 298 312 341 332 329 338 25 35 118 152 164 162 159 149 126 108 107 130 126 134 143 160 177 197 203 256 302 330 137 165 165 176 130 357 342 339 334 23 22 238 207 181 211 262 276 88
319 321 314 298 328 340 345 325 329 329 358 182 164 156 135 114 128 130 123 128 134 119 129 149 169 173 175 169 327 301 311 316 356 298 319 330 346 346 15 0 38 297 228 220 198 189 188 12 36
306 342 321 296 327 312 326 307 321 322 355 18 99 116 112 90 102 129 114 130 150 150 151 172 179 183 180 168 156 156 147 149 243 299 338 31 72 87 150 158 217 224 246 235 152 188 195 194 191
341 319 312 320 332 332 326 314 309 320 326 195 330 29 177 144 120 134 127 125 143 148 156 172 184 193 181 168 159 183 191 176 183 301 356 56 125 131 179 172 214 223 208 208 161 184 185 163 196
317 321 330 337 334 317 323 317 308 321 288 306 333 160 171 122 119 134 131 116 135 148 164 173 179 185 179 170 177 178 180 180 184 215 202 139 175 176 192 200 202 211 196 195 189 187 176 191 202
321 321 317 321 320 313 320 317 322 316 316 301 151 137 151 125 117 128 142 132 135 147 159 159 169 177 183 187 175 176 176 176 182 209 224 206 193 175 188 198 199 198 194 189 194 181 183 189 194
311 328 326 317 331 329 328 321 321 325 341 316 355 116 118 141 117 133 143 131 138 149 156 155 162 184 189 186 181 183 181 171 199 222 233 215 212 205 200 194 190 196 197 195 185 183 183 177 182
319 324 337 326 332 327 319 312 297 341 359 309 325 130 152 141 137 143 140 136 129 127 128 134 144 157 171 172 174 180 175 167 227 246 247 237 223 212 203 190 187 186 191 190 185 189 192 184 181
305 338 322 322 316 320 321 312 320 333 35 94 328 164 165 153 140 146 142 137 129 124 115 108 127 131 134 165 171 181 189 145 151 263 217 212 219 240 234 190 182 184 179 173 171 185 188 189 191
306 314 325 327 322 323 322 322 199 205 164 159 141 180 173 160 149 151 152 143 139 125 124 122 127 116 110 129 201 217 231 176 169 187 195 227 260 228 267 227 198 193 188 177 171 185 190 191 199
295 307 318 315 315 312 308 239 257 244 195 124 43 151 163 160 173 158 151 146 146 141 126 119 131 115 59 319 260 282 303 15 9 346 313 357 329 300 288 289 280 264 240 219 199 201 200 192 190